�����͌���@�Y���u�C�̈ړ���,,,,,,,,,,,,
�@,Time,Time int.,,Lat.,,Long.,,Distance,,Direction,Speed,
Date(yy/mm/dd),(hh:mm),(hour),(min),(deg),(min),(deg),(min),(miles),(meter),(deg),(m/s),(knots)
2004/5/25,9:40,,,36,47.748 ,137,4.152 ,,,,,
2004/5/25,9:45,0,5,36,47.772 ,137,4.206 ,0.06 ,109.44 ,66.0 ,0.36 ,0.71 
2004/5/25,9:50,0,5,36,47.784 ,137,4.218 ,0.02 ,31.43 ,45.0 ,0.10 ,0.20 
2004/5/25,9:55,0,5,36,47.802 ,137,4.248 ,0.03 ,64.79 ,59.0 ,0.22 ,0.42 
2004/5/25,10:00,0,5,36,47.820 ,137,4.272 ,0.03 ,55.56 ,53.1 ,0.19 ,0.36 
2004/5/25,10:05,0,5,36,47.832 ,137,4.284 ,0.02 ,31.43 ,45.0 ,0.10 ,0.20 
2004/5/25,10:10,0,5,36,47.850 ,137,4.302 ,0.03 ,47.14 ,45.0 ,0.16 ,0.31 
2004/5/25,10:15,0,5,36,47.874 ,137,4.314 ,0.03 ,49.69 ,26.6 ,0.17 ,0.32 
2004/5/25,10:20,0,5,36,47.886 ,137,4.314 ,0.01 ,22.22 ,0.0 ,0.07 ,0.14 
2004/5/25,10:25,0,5,36,47.892 ,137,4.326 ,0.01 ,24.85 ,63.4 ,0.08 ,0.16 
2004/5/25,10:30,0,5,36,47.904 ,137,4.338 ,0.02 ,31.43 ,45.0 ,0.10 ,0.20 
2004/5/25,10:35,0,5,36,47.916 ,137,4.344 ,0.01 ,24.85 ,26.6 ,0.08 ,0.16 
2004/5/25,10:40,0,5,36,47.928 ,137,4.356 ,0.02 ,31.43 ,45.0 ,0.10 ,0.20 
2004/5/25,10:45,0,5,36,47.940 ,137,4.362 ,0.01 ,24.85 ,26.6 ,0.08 ,0.16 
2004/5/25,10:50,0,5,36,47.958 ,137,4.368 ,0.02 ,35.14 ,18.4 ,0.12 ,0.23 
2004/5/25,10:55,0,5,36,47.964 ,137,4.380 ,0.01 ,24.85 ,63.4 ,0.08 ,0.16 
2004/5/25,11:00,0,5,36,47.970 ,137,4.386 ,0.01 ,15.71 ,45.0 ,0.05 ,0.10 
2004/5/25,11:05,0,5,36,47.982 ,137,4.392 ,0.01 ,24.85 ,26.6 ,0.08 ,0.16 
2004/5/25,11:10,0,5,36,47.994 ,137,4.398 ,0.01 ,24.85 ,26.6 ,0.08 ,0.16 
2004/5/25,11:15,0,5,36,48.000 ,137,4.392 ,0.01 ,15.71 ,315.0 ,0.05 ,0.10 
2004/5/25,11:20,0,5,36,48.000 ,137,4.386 ,0.01 ,11.11 ,270.0 ,0.04 ,0.07 
2004/5/25,11:25,0,5,36,48.018 ,137,4.356 ,0.03 ,64.79 ,301.0 ,0.22 ,0.42 
2004/5/25,11:30,0,5,36,48.030 ,137,4.338 ,0.02 ,40.06 ,303.7 ,0.13 ,0.26 
2004/5/25,11:35,0,5,36,48.036 ,137,4.314 ,0.02 ,45.82 ,284.0 ,0.15 ,0.30 
2004/5/25,11:40,0,5,36,48.042 ,137,4.296 ,0.02 ,35.14 ,288.4 ,0.12 ,0.23 
2004/5/25,11:45,0,5,36,48.060 ,137,4.278 ,0.03 ,47.14 ,315.0 ,0.16 ,0.31 
2004/5/25,11:50,0,5,36,48.066 ,137,4.248 ,0.03 ,56.66 ,281.3 ,0.19 ,0.37 
2004/5/25,11:55,0,5,36,48.060 ,137,4.236 ,0.01 ,24.85 ,243.4 ,0.08 ,0.16 
2004/5/25,12:00,0,5,36,48.072 ,137,4.218 ,0.02 ,40.06 ,303.7 ,0.13 ,0.26 
2004/5/25,12:05,0,5,36,48.060 ,137,4.200 ,0.02 ,40.06 ,236.3 ,0.13 ,0.26 
2004/5/25,12:10,0,5,36,48.066 ,137,4.182 ,0.02 ,35.14 ,288.4 ,0.12 ,0.23 
2004/5/25,12:15,0,5,36,48.060 ,137,4.164 ,0.02 ,35.14 ,251.6 ,0.12 ,0.23 
2004/5/25,12:20,0,5,36,48.054 ,137,4.146 ,0.02 ,35.14 ,251.6 ,0.12 ,0.23 
2004/5/25,12:25,0,5,36,48.054 ,137,4.128 ,0.02 ,33.34 ,270.0 ,0.11 ,0.22 
2004/5/25,12:30,0,5,36,48.036 ,137,4.110 ,0.03 ,47.14 ,225.0 ,0.16 ,0.31 
2004/5/26,12:35,0,5,36,48.042 ,137,4.098 ,0.01 ,24.85 ,296.6 ,0.08 ,0.16 
2004/5/25,12:40,0,5,36,48.012 ,137,4.068 ,0.04 ,78.57 ,225.0 ,0.26 ,0.51 
,,,,,,,,,,,,
,,,,,,,,,,,,
�A,Time,Time int.,,Lat.,,Long.,,Distance,,Direction,Speed,
Date(yy/mm/dd),(hh:mm),(hour),(min),(deg),(min),(deg),(min),(miles),(meter),(deg),(m/s),(knots)
2004/5/25,12:50,,,36,47.676 ,137,4.224 ,,,,,
2004/5/25,13:00,0,10,36,47.700 ,137,4.332 ,0.11 ,204.90 ,77.5 ,0.34 ,0.66 
2004/5/25,13:05,0,5,36,47.712 ,137,4.392 ,0.06 ,113.32 ,78.7 ,0.38 ,0.73 
2004/5/25,13:10,0,5,36,47.724 ,137,4.434 ,0.04 ,80.90 ,74.1 ,0.27 ,0.52 
2004/5/25,13:15,0,5,36,47.754 ,137,4.476 ,0.05 ,95.59 ,54.5 ,0.32 ,0.62 
2004/5/25,13:20,0,5,36,47.778 ,137,4.518 ,0.05 ,89.59 ,60.3 ,0.30 ,0.58 
2004/5/25,13:25,0,5,36,47.808 ,137,4.548 ,0.04 ,78.57 ,45.0 ,0.26 ,0.51 
2004/5/25,13:30,0,5,36,47.844 ,137,4.578 ,0.05 ,86.79 ,39.8 ,0.29 ,0.56 
2004/5/25,13:35,0,5,36,47.880 ,137,4.596 ,0.04 ,74.54 ,26.6 ,0.25 ,0.48 
2004/5/25,13:40,0,5,36,47.916 ,137,4.620 ,0.04 ,80.13 ,33.7 ,0.27 ,0.52 
2004/5/25,13:45,0,5,36,47.952 ,137,4.632 ,0.04 ,70.28 ,18.4 ,0.23 ,0.46 
2004/5/25,13:50,0,5,36,47.988 ,137,4.644 ,0.04 ,70.28 ,18.4 ,0.23 ,0.46 
2004/5/25,13:55,0,5,36,48.030 ,137,4.638 ,0.04 ,78.57 ,351.9 ,0.26 ,0.51 
2004/5/25,14:00,0,5,36,48.078 ,137,4.626 ,0.05 ,91.63 ,346.0 ,0.31 ,0.59 
2004/5/25,14:05,0,5,36,48.108 ,137,4.632 ,0.03 ,56.66 ,11.3 ,0.19 ,0.37 
2004/5/25,14:10,0,5,36,48.156 ,137,4.614 ,0.05 ,94.94 ,339.4 ,0.32 ,0.62 
2004/5/25,14:20,0,10,36,48.246 ,137,4.602 ,0.09 ,168.16 ,352.4 ,0.28 ,0.54 
2004/5/25,14:25,0,5,36,48.288 ,137,4.590 ,0.04 ,80.90 ,344.1 ,0.27 ,0.52 
2004/5/25,14:30,0,5,36,48.324 ,137,4.566 ,0.04 ,80.13 ,326.3 ,0.27 ,0.52 
2004/5/25,14:35,0,5,36,48.360 ,137,4.542 ,0.04 ,80.13 ,326.3 ,0.27 ,0.52 
2004/5/25,14:40,0,5,36,48.384 ,137,4.518 ,0.03 ,62.86 ,315.0 ,0.21 ,0.41 

,,,,,,,,,,,,
�B,Time,Time int.,,Lat.,,Long.,,Distance,,Direction,Speed,
Date(yy/mm/dd),(hh:mm),(hour),(min),(deg),(min),(deg),(min),(miles),(meter),(deg),(m/s),(knots)
2004/5/25,9:40,,,36,47.682 ,137,4.236 ,,,,,
2004/5/25,9:45,0,5,36,47.706 ,137,4.314 ,0.08 ,151.14 ,72.9 ,0.50 ,0.98 
2004/5/25,9:50,0,5,36,47.700 ,137,4.356 ,0.04 ,78.57 ,98.1 ,0.26 ,0.51 
2004/5/25,9:55,0,5,36,47.688 ,137,4.392 ,0.04 ,70.28 ,108.4 ,0.23 ,0.46 
2004/5/25,10:00,0,5,36,47.700 ,137,4.434 ,0.04 ,80.90 ,74.1 ,0.27 ,0.52 
2004/5/25,10:05,0,5,36,47.712 ,137,4.476 ,0.04 ,80.90 ,74.1 ,0.27 ,0.52 
2004/5/25,10:10,0,5,36,47.736 ,137,4.506 ,0.04 ,71.15 ,51.3 ,0.24 ,0.46 
2004/5/25,10:15,0,5,36,47.754 ,137,4.542 ,0.04 ,74.54 ,63.4 ,0.25 ,0.48 
2004/5/25,10:20,0,5,36,47.766 ,137,4.578 ,0.04 ,70.28 ,71.6 ,0.23 ,0.46 
2004/5/25,10:25,0,5,36,47.784 ,137,4.608 ,0.03 ,64.79 ,59.0 ,0.22 ,0.42 
2004/5/25,10:30,0,5,36,47.802 ,137,4.638 ,0.03 ,64.79 ,59.0 ,0.22 ,0.42 
2004/5/25,10:35,0,5,36,47.826 ,137,4.662 ,0.03 ,62.86 ,45.0 ,0.21 ,0.41 
2004/5/25,10:40,0,5,36,47.844 ,137,4.686 ,0.03 ,55.56 ,53.1 ,0.19 ,0.36 
2004/5/25,10:45,0,5,36,47.868 ,137,4.704 ,0.03 ,55.56 ,36.9 ,0.19 ,0.36 
2004/5/25,10:50,0,5,36,47.892 ,137,4.716 ,0.03 ,49.69 ,26.6 ,0.17 ,0.32 
2004/5/25,10:55,0,5,36,47.910 ,137,4.734 ,0.03 ,47.14 ,45.0 ,0.16 ,0.31 
2004/5/25,11:00,0,5,36,47.922 ,137,4.752 ,0.02 ,40.06 ,56.3 ,0.13 ,0.26 
2004/5/25,11:05,0,5,36,47.940 ,137,4.770 ,0.03 ,47.14 ,45.0 ,0.16 ,0.31 
2004/5/25,11:10,0,5,36,47.958 ,137,4.770 ,0.02 ,33.34 ,0.0 ,0.11 ,0.22 
2004/5/25,11:15,0,5,36,47.976 ,137,4.776 ,0.02 ,35.14 ,18.4 ,0.12 ,0.23 
2004/5/25,11:20,0,5,36,48.000 ,137,4.776 ,0.02 ,44.45 ,0.0 ,0.15 ,0.29 
2004/5/25,11:25,0,5,36,48.030 ,137,4.770 ,0.03 ,56.66 ,348.7 ,0.19 ,0.37 
2004/5/25,11:30,0,5,36,48.048 ,137,4.782 ,0.02 ,40.06 ,33.7 ,0.13 ,0.26 
2004/5/25,11:40,0,10,36,48.108 ,137,4.776 ,0.06 ,111.67 ,354.3 ,0.19 ,0.36 
2004/5/25,11:45,0,5,36,48.132 ,137,4.764 ,0.03 ,49.69 ,333.4 ,0.17 ,0.32 
2004/5/25,11:50,0,5,36,48.156 ,137,4.770 ,0.02 ,45.82 ,14.0 ,0.15 ,0.30 
2004/5/25,12:00,0,10,36,48.210 ,137,4.746 ,0.06 ,109.44 ,336.0 ,0.18 ,0.35 
2004/5/25,12:05,0,5,36,48.222 ,137,4.734 ,0.02 ,31.43 ,315.0 ,0.10 ,0.20 
2004/5/25,12:10,0,5,36,48.246 ,137,4.710 ,0.03 ,62.86 ,315.0 ,0.21 ,0.41 
2004/5/25,12:15,0,5,36,48.264 ,137,4.698 ,0.02 ,40.06 ,326.3 ,0.13 ,0.26 
2004/5/25,12:20,0,5,36,48.294 ,137,4.686 ,0.03 ,59.84 ,338.2 ,0.20 ,0.39 
2004/5/25,12:25,0,5,36,48.306 ,137,4.668 ,0.02 ,40.06 ,303.7 ,0.13 ,0.26 
2004/5/25,12:30,0,5,36,48.324 ,137,4.644 ,0.03 ,55.56 ,306.9 ,0.19 ,0.36 
,,,,,,,,,,,,
,,,,,,,,,,,,
�C,Time,Time int.,,Lat.,,Long.,,Distance,,Direction,Speed,
Date(yy/mm/dd),(hh:mm),(hour),(min),(deg),(min),(deg),(min),(miles),(meter),(deg),(m/s),(knots)
2004/5/25,12:50,,,36,47.598 ,137,4.248 ,,,,,
2004/5/25,12:55,0,5,36,47.604 ,137,4.272 ,0.02 ,45.82 ,76.0 ,0.15 ,0.30 
2004/5/25,13:00,0,5,36,47.598 ,137,4.290 ,0.02 ,35.14 ,108.4 ,0.12 ,0.23 
2004/5/25,13:05,0,5,36,47.604 ,137,4.308 ,0.02 ,35.14 ,71.6 ,0.12 ,0.23 
2004/5/25,13:10,0,5,36,47.604 ,137,4.332 ,0.02 ,44.45 ,90.0 ,0.15 ,0.29 
2004/5/25,13:15,0,5,36,47.616 ,137,4.356 ,0.03 ,49.69 ,63.4 ,0.17 ,0.32 
2004/5/25,13:20,0,5,36,47.616 ,137,4.368 ,0.01 ,22.22 ,90.0 ,0.07 ,0.14 
2004/5/25,13:25,0,5,36,47.628 ,137,4.392 ,0.03 ,49.69 ,63.4 ,0.17 ,0.32 
2004/5/25,13:30,0,5,36,47.634 ,137,4.422 ,0.03 ,56.66 ,78.7 ,0.19 ,0.37 
2004/5/25,13:40,0,10,36,47.658 ,137,4.458 ,0.04 ,80.13 ,56.3 ,0.13 ,0.26 
2004/5/25,13:45,0,5,36,47.658 ,137,4.482 ,0.02 ,44.45 ,90.0 ,0.15 ,0.29 
2004/5/25,13:50,0,5,36,47.658 ,137,4.494 ,0.01 ,22.22 ,90.0 ,0.07 ,0.14 
2004/5/25,13:55,0,5,36,47.670 ,137,4.506 ,0.02 ,31.43 ,45.0 ,0.10 ,0.20 
2004/5/25,14:00,0,5,36,47.670 ,137,4.518 ,0.01 ,22.22 ,90.0 ,0.07 ,0.14 
2004/5/25,14:05,0,5,36,47.682 ,137,4.524 ,0.01 ,24.85 ,26.6 ,0.08 ,0.16 
2004/5/25,14:15,0,10,36,47.688 ,137,4.536 ,0.01 ,24.85 ,63.4 ,0.04 ,0.08 
2004/5/25,14:20,0,5,36,47.682 ,137,4.542 ,0.01 ,15.71 ,135.0 ,0.05 ,0.10 
2004/5/25,14:25,0,5,36,47.706 ,137,4.554 ,0.03 ,49.69 ,26.6 ,0.17 ,0.32 
2004/5/25,14:30,0,5,36,47.718 ,137,4.566 ,0.02 ,31.43 ,45.0 ,0.10 ,0.20 
2004/5/25,14:35,0,5,36,47.766 ,137,4.566 ,0.05 ,88.90 ,0.0 ,0.30 ,0.58 
2004/5/25,14:40,0,5,36,47.766 ,137,4.590 ,0.02 ,44.45 ,90.0 ,0.15 ,0.29 
2004/5/25,14:45,0,5,36,47.802 ,137,4.602 ,0.04 ,70.28 ,18.4 ,0.23 ,0.46 
2004/5/25,14:50,0,5,36,47.814 ,137,4.608 ,0.01 ,24.85 ,26.6 ,0.08 ,0.16 
2004/5/25,14:55,0,5,36,47.856 ,137,4.602 ,0.04 ,78.57 ,351.9 ,0.26 ,0.51 
2004/5/25,15:00,0,5,36,47.874 ,137,4.614 ,0.02 ,40.06 ,33.7 ,0.13 ,0.26 
2004/5/25,15:05,0,5,36,47.904 ,137,4.596 ,0.03 ,64.79 ,329.0 ,0.22 ,0.42 
2004/5/25,15:10,0,5,36,47.946 ,137,4.590 ,0.04 ,78.57 ,351.9 ,0.26 ,0.51 
2004/5/25,15:15,0,5,36,47.982 ,137,4.566 ,0.04 ,80.13 ,326.3 ,0.27 ,0.52 
2004/5/25,15:20,0,5,36,48.030 ,137,4.566 ,0.05 ,88.90 ,0.0 ,0.30 ,0.58 
2004/5/25,15:25,0,5,36,48.048 ,137,4.530 ,0.04 ,74.54 ,296.6 ,0.25 ,0.48 
2004/5/25,15:30,0,5,36,48.078 ,137,4.488 ,0.05 ,95.59 ,305.5 ,0.32 ,0.62 
2004/5/25,15:35,0,5,36,48.114 ,137,4.464 ,0.04 ,80.13 ,326.3 ,0.27 ,0.52 
2004/5/25,15:40,0,5,36,48.156 ,137,4.428 ,0.06 ,102.45 ,319.4 ,0.34 ,0.66 
2004/5/25,15:45,0,5,36,48.192 ,137,4.356 ,0.08 ,149.08 ,296.6 ,0.50 ,0.97 
2004/5/25,15:50,0,5,36,48.234 ,137,4.302 ,0.07 ,126.70 ,307.9 ,0.42 ,0.82 
